• In Latvia
  • List of Countries
  • For 7 days
  • Water Temperature
  • Satellite Maps
  • Weather Map
  • Weather Widgets
  • user-avatar
    Login

    Hourly Weather Darwin

    Today, 21 July, Friday

    Time Temperature Precipitation Wind Pressure Humidity
    00:00 +24°C° 0 mm 3 mps 760 mmHg 31%
    01:00 +24°C° 0 mm 3 mps 760 mmHg 30%
    02:00 +22°C° 0 mm 4 mps 760 mmHg 29%
    03:00 +21°C° 0 mm 4 mps 760 mmHg 28%
    04:00 +21°C° 0 mm 4 mps 760 mmHg 29%
    05:00 +21°C° 0 mm 5 mps 760 mmHg 29%
    06:00 +20°C° 0 mm 5 mps 760 mmHg 30%
    07:00 +22°C° 0 mm 5 mps 760 mmHg 28%
    08:00 +25°C° 0 mm 5 mps 760 mmHg 25%
    09:00 +28°C° 0 mm 7 mps 761 mmHg 26%
    10:00 +30°C° 0 mm 6 mps 760 mmHg 24%
    11:00 +34°C° 0 mm 5 mps 760 mmHg 21%
    12:00 +36°C° 0 mm 4 mps 760 mmHg 19%
    13:00 +36°C° 0 mm 4 mps 759 mmHg 20%
    14:00 +37°C° 0 mm 3 mps 759 mmHg 20%
    15:00 +36°C° 0 mm 2 mps 759 mmHg 20%
    16:00 +34°C° 0 mm 2 mps 759 mmHg 23%
    17:00 +32°C° 0 mm 2 mps 759 mmHg 27%
    18:00 +30°C° 0 mm 2 mps 759 mmHg 30%
    19:00 +28°C° 0 mm 2 mps 759 mmHg 32%
    20:00 +27°C° 0 mm 1 mps 760 mmHg 35%
    21:00 +26°C° 0 mm 1 mps 760 mmHg 37%
    22:00 +25°C° 0 mm 2 mps 761 mmHg 37%
    23:00 +25°C° 0 mm 2 mps 761 mmHg 36%

    Tomorrow, 22 July, Saturday

    Time Temperature Precipitation Wind Pressure Humidity
    00:00 +24°C° 0 mm 2 mps 761 mmHg 35%
    01:00 +24°C° 0 mm 2 mps 761 mmHg 32%
    02:00 +22°C° 0 mm 3 mps 760 mmHg 30%
    03:00 +22°C° 0 mm 3 mps 760 mmHg 28%
    04:00 +22°C° 0 mm 3 mps 760 mmHg 28%
    05:00 +21°C° 0 mm 3 mps 760 mmHg 27%
    06:00 +21°C° 0 mm 4 mps 760 mmHg 27%
    07:00 +23°C° 0 mm 4 mps 761 mmHg 25%
    08:00 +26°C° 0 mm 4 mps 761 mmHg 23%
    09:00 +28°C° 0 mm 4 mps 761 mmHg 21%
    10:00 +30°C° 0 mm 4 mps 761 mmHg 20%
    11:00 +34°C° 0 mm 4 mps 760 mmHg 19%
    12:00 +36°C° 0 mm 3 mps 760 mmHg 18%
    13:00 +36°C° 0 mm 3 mps 759 mmHg 19%
    14:00 +37°C° 0 mm 3 mps 759 mmHg 20%
    15:00 +37°C° 0 mm 3 mps 758 mmHg 21%
    16:00 +35°C° 0 mm 2 mps 758 mmHg 25%
    17:00 +34°C° 0 mm 2 mps 758 mmHg 28%
    18:00 +31°C° 0 mm 2 mps 758 mmHg 31%
    19:00 +30°C° 0 mm 2 mps 759 mmHg 35%
    20:00 +28°C° 0 mm 2 mps 759 mmHg 39%
    21:00 +27°C° 0 mm 2 mps 760 mmHg 44%
    22:00 +27°C° 0 mm 2 mps 760 mmHg 45%
    23:00 +26°C° 0 mm 2 mps 760 mmHg 46%

    Day after tomorrow, 23 July, Sunday

    Time Temperature Precipitation Wind Pressure Humidity
    00:00 +26°C° 0 mm 2 mps 760 mmHg 47%
    01:00 +26°C° 0 mm 2 mps 760 mmHg 43%
    02:00 +25°C° 0 mm 3 mps 760 mmHg 39%
    03:00 +25°C° 0 mm 3 mps 759 mmHg 35%
    04:00 +25°C° 0 mm 3 mps 759 mmHg 36%
    05:00 +24°C° 0 mm 3 mps 759 mmHg 36%
    06:00 +24°C° 0 mm 3 mps 759 mmHg 37%
    07:00 +26°C° 0 mm 3 mps 760 mmHg 35%
    08:00 +27°C° 0 mm 4 mps 760 mmHg 33%
    09:00 +29°C° 0 mm 4 mps 761 mmHg 30%
    10:00 +32°C° 0 mm 4 mps 760 mmHg 27%
    11:00 +34°C° 0 mm 4 mps 760 mmHg 24%
    12:00 +37°C° 0 mm 3 mps 759 mmHg 20%
    13:00 +37°C° 0 mm 3 mps 758 mmHg 21%
    14:00 +37°C° 0 mm 4 mps 758 mmHg 22%
    15:00 +38°C° 0 mm 4 mps 757 mmHg 23%
    16:00 +36°C° 0 mm 3 mps 757 mmHg 27%
    17:00 +35°C° 0 mm 3 mps 757 mmHg 31%
    18:00 +32°C° 0 mm 2 mps 757 mmHg 35%
    19:00 +31°C° 0 mm 2 mps 758 mmHg 38%
    20:00 +30°C° 0 mm 2 mps 759 mmHg 42%
    21:00 +29°C° 0 mm 2 mps 759 mmHg 45%
    22:00 +28°C° 0 mm 2 mps 759 mmHg 45%
    23:00 +28°C° 0 mm 2 mps 759 mmHg 44%

    24 July, Monday

    Time Temperature Precipitation Wind Pressure Humidity
    00:00 +27°C° 0 mm 1 mps 759 mmHg 44%
    01:00 +27°C° 0 mm 2 mps 759 mmHg 41%
    02:00 +27°C° 0 mm 2 mps 758 mmHg 38%
    03:00 +27°C° 0 mm 3 mps 758 mmHg 35%
    04:00 +26°C° 0 mm 3 mps 758 mmHg 39%
    05:00 +26°C° 0 mm 4 mps 758 mmHg 43%
    06:00 +26°C° 0 mm 5 mps 758 mmHg 47%
    07:00 +27°C° 0 mm 5 mps 759 mmHg 46%
    08:00 +28°C° 0 mm 6 mps 759 mmHg 45%
    09:00 +30°C° 0 mm 6 mps 760 mmHg 43%
    10:00 +32°C° 0 mm 6 mps 759 mmHg 41%
    11:00 +34°C° 0 mm 6 mps 759 mmHg 38%
    12:00 +36°C° 0 mm 6 mps 759 mmHg 35%
    13:00 +36°C° 0 mm 5 mps 758 mmHg 35%
    14:00 +37°C° 0 mm 5 mps 757 mmHg 35%
    15:00 +37°C° 0 mm 4 mps 756 mmHg 35%
    16:00 +36°C° 0 mm 4 mps 757 mmHg 39%
    17:00 +35°C° 0 mm 3 mps 757 mmHg 42%
    18:00 +34°C° 0 mm 3 mps 757 mmHg 45%
    19:00 +33°C° 0 mm 3 mps 758 mmHg 49%
    20:00 +31°C° 0 mm 2 mps 758 mmHg 53%
    21:00 +30°C° 0 mm 2 mps 759 mmHg 57%
    22:00 +30°C° 0 mm 2 mps 759 mmHg 57%
    23:00 +29°C° 0 mm 3 mps 759 mmHg 57%

    25 July, Tuesday

    Time Temperature Precipitation Wind Pressure Humidity
    00:00 +29°C° 0 mm 3 mps 759 mmHg 57%
    01:00 +29°C° 0 mm 4 mps 759 mmHg 59%
    02:00 +28°C° 0 mm 4 mps 758 mmHg 62%
    03:00 +28°C° 0 mm 5 mps 758 mmHg 64%
    04:00 +27°C° 0 mm 5 mps 758 mmHg 68%
    05:00 +26°C° 0 mm 5 mps 758 mmHg 71%
    06:00 +24°C° 0 mm 6 mps 759 mmHg 74%
    07:00 +27°C° 0 mm 6 mps 759 mmHg 68%
    08:00 +28°C° 0 mm 7 mps 760 mmHg 62%
    09:00 +30°C° 0 mm 7 mps 760 mmHg 56%
    10:00 +33°C° 0 mm 7 mps 760 mmHg 50%
    11:00 +34°C° 0 mm 7 mps 759 mmHg 44%
    12:00 +36°C° 0 mm 6 mps 759 mmHg 38%
    13:00 +38°C° 0 mm 6 mps 758 mmHg 37%
    14:00 +39°C° 0 mm 6 mps 757 mmHg 35%
    15:00 +39°C° 0 mm 5 mps 757 mmHg 33%
    16:00 +37°C° 0 mm 5 mps 757 mmHg 37%
    17:00 +35°C° 0 mm 5 mps 757 mmHg 42%
    18:00 +34°C° 0 mm 5 mps 758 mmHg 46%
    19:00 +33°C° 0 mm 4 mps 758 mmHg 53%
    20:00 +30°C° 0 mm 4 mps 759 mmHg 60%
    21:00 +29°C° 0 mm 4 mps 759 mmHg 66%
    22:00 +29°C° 0 mm 4 mps 759 mmHg 69%
    23:00 +28°C° 0 mm 4 mps 759 mmHg 71%

    26 July, Wednesday

    Time Temperature Precipitation Wind Pressure Humidity
    00:00 +28°C° 0 mm 4 mps 760 mmHg 73%
    01:00 +27°C° 0 mm 4 mps 759 mmHg 71%
    02:00 +27°C° 0 mm 5 mps 759 mmHg 69%
    03:00 +27°C° 0 mm 5 mps 759 mmHg 66%
    04:00 +26°C° 0 mm 5 mps 759 mmHg 68%
    05:00 +26°C° 0 mm 6 mps 760 mmHg 69%
    06:00 +24°C° 0 mm 6 mps 760 mmHg 71%
    07:00 +27°C° 0 mm 6 mps 760 mmHg 62%
    08:00 +28°C° 0 mm 7 mps 761 mmHg 54%
    09:00 +30°C° 0 mm 7 mps 761 mmHg 46%
    10:00 +33°C° 0 mm 7 mps 760 mmHg 40%
    11:00 +35°C° 0 mm 6 mps 760 mmHg 34%
    12:00 +38°C° 0 mm 6 mps 759 mmHg 28%
    13:00 +39°C° 0 mm 6 mps 759 mmHg 28%
    14:00 +39°C° 0 mm 5 mps 758 mmHg 27%
    15:00 +40°C° 0 mm 5 mps 757 mmHg 27%
    16:00 +37°C° 0 mm 5 mps 757 mmHg 30%
    17:00 +36°C° 0 mm 4 mps 757 mmHg 34%
    18:00 +35°C° 0 mm 4 mps 758 mmHg 38%
    19:00 +33°C° 0 mm 4 mps 758 mmHg 45%
    20:00 +30°C° 0 mm 4 mps 759 mmHg 53%
    21:00 +29°C° 0 mm 4 mps 760 mmHg 60%
    22:00 +28°C° 0 mm 4 mps 760 mmHg 66%
    23:00 +27°C° 0 mm 4 mps 760 mmHg 72%
    Show more